Tracking 24122 objects as of 9-Dec-2021
HD Live streaming from Space Station
objects crossing your sky now

OPS 4682 DEB

Track OPS 4682 DEB now!
10-day predictions


NORAD ID: 19664
Int'l Code: 1965-027AX
Perigee: 1,241.4 km
Apogee: 1,279.3 km
Inclination: 90.3 °
Period: 110.6 minutes
Semi major axis: 7631 km
RCS: 0.0123 m2 (small)
Launch date: April 3, 1965
Source: United States (US)
Launch site: AIR FORCE WESTERN TEST RANGE (AFWTR)

Note: This is SATELLITE DEBRIS
aabbcc
Your satellite tracking list
Your tracking list is empty




NASA's NSSDC Master Catalog

Two Line Element Set (TLE):
1 19664U 65027AX  21341.44541851  .00000257  00000-0  80393-3 0  9999
2 19664  90.2797 319.2577 0024783 265.6672 248.5430 13.02270635841440
Source of the keplerian elements: AFSPC